GFSMA_sfc_dewp_021.txt.gz
Dewpoint
72 73 73 74 74 73 72 75 73 72 71 71 71 71 69 70 70 69 69 71 74 75 73 72 72 73 72 71 71 73 72 72 71 72 71 70 70 69 71 71 71 70 71
72 74 73 73 76 72 72 74 74 74 71 71 70 70 70 69 69 70 68 70 72 73 74 73 73 73 73 73 71 71 71 73 72 71 71 73 72 71 71 71 71 70 71
74 75 75 74 72 73 74 73 74 71 72 70 70 68 67 67 66 68 67 68 69 71 72 73 73 74 73 72 73 73 73 73 73 73 73 73 73 73 73 73 72 72 73
76 75 73 76 72 73 71 73 72 70 69 68 68 67 66 66 66 67 67 67 66 67 70 72 74 74 73 71 73 73 73 73 74 74 74 74 73 73 73 73 74 73 73
75 74 77 76 74 72 76 71 71 70 67 66 64 63 65 65 66 64 67 69 68 68 67 72 73 73 72 72 73 73 73 74 74 74 74 74 74 74 74 74 74 74 74
74 76 75 74 73 72 70 69 69 68 67 66 63 62 64 66 65 66 67 64 68 68 69 72 71 70 71 72 73 73 73 74 74 74 74 74 74 74 74 74 74 74 74
74 75 72 73 72 70 69 70 68 67 65 68 64 60 63 65 64 64 65 62 63 64 67 69 70 70 70 71 72 72 73 73 73 73 74 74 74 74 74 74 74 74 74
75 74 74 71 72 68 70 69 69 64 65 68 63 64 58 61 63 63 63 59 60 62 62 64 67 69 70 70 71 71 71 72 72 73 73 73 73 73 74 74 74 74 74
74 74 73 71 72 69 65 69 68 67 62 66 67 63 58 55 58 63 64 60 60 58 60 62 63 63 63 63 64 67 68 69 70 70 71 71 73 73 73 73 74 74 74
74 73 73 72 72 67 68 68 67 67 67 62 65 66 66 65 58 56 58 59 58 56 61 56 57 58 59 56 60 62 64 65 65 67 69 70 70 71 73 74 73 74 74
73 73 72 71 70 66 69 68 68 68 66 65 64 64 65 64 65 58 51 53 56 56 57 58 55 55 56 58 56 60 62 62 62 63 64 66 68 70 70 71 73 74 74
67 70 69 70 70 68 68 67 67 67 67 67 65 64 61 58 58 58 57 57 56 56 55 58 58 56 55 55 55 60 60 60 60 61 62 63 65 67 69 71 71 73 74
64 67 69 70 68 69 68 67 68 67 67 65 67 62 62 61 62 60 58 56 56 55 54 54 55 57 57 56 55 59 59 60 60 61 61 62 62 64 67 68 70 71 72
63 68 69 69 69 67 67 67 65 65 67 65 67 66 62 62 62 62 60 57 53 52 53 56 54 54 56 57 59 60 57 61 60 61 62 61 61 62 63 65 67 69 70
64 67 68 68 67 66 67 68 64 66 67 67 66 67 64 62 62 62 62 60 57 52 49 52 52 58 57 57 59 61 60 61 61 61 61 61 61 62 62 62 65 67 68
67 68 68 67 67 67 67 68 65 66 66 65 64 66 66 62 63 63 62 61 60 56 53 52 54 57 60 59 60 61 61 60 61 60 60 61 61 61 62 62 63 64 67
67 67 67 67 67 67 67 67 67 66 66 66 66 66 66 66 62 62 63 62 60 59 56 54 55 59 61 62 61 62 61 60 57 60 60 60 60 60 61 61 62 62 63
66 66 67 67 66 66 67 67 66 64 65 65 64 65 65 63 66 68 65 65 62 62 59 58 60 58 61 62 62 62 60 58 58 58 60 59 59 59 59 59 60 60 60
65 65 66 67 66 66 66 67 66 65 65 64 64 65 64 65 65 66 65 62 60 62 62 59 57 57 58 59 59 60 60 60 58 59 59 58 59 59 59 58 58 58 58
64 65 66 66 66 67 66 65 65 65 65 64 65 65 65 64 64 65 64 65 64 63 62 59 58 56 56 59 58 56 55 55 55 54 56 56 57 57 57 57 58 58 57
63 65 65 65 65 65 63 65 65 65 66 65 65 65 64 64 63 63 60 62 63 60 57 57 57 55 54 54 55 54 54 54 56 55 53 53 53 51 51 55 58 59 58
65 65 65 64 65 63 60 61 64 65 66 65 64 64 64 63 62 62 62 62 62 62 61 60 56 56 58 57 55 55 54 52 51 53 55 52 53 53 53 53 56 57 56
65 64 65 65 65 65 60 60 63 65 65 65 65 65 64 60 61 60 60 60 60 60 61 61 59 58 58 58 58 56 56 55 55 55 54 53 52 52 53 54 56 56 56
64 64 65 66 65 65 60 59 61 65 66 65 66 65 64 62 61 60 59 59 59 59 60 57 58 57 57 57 56 56 56 56 56 54 56 51 52 51 53 55 56 56 56
65 64 65 66 66 67 58 58 60 64 63 63 64 63 61 60 59 56 57 58 58 57 56 55 55 55 55 56 56 55 53 53 51 50 53 52 51 52 53 53 54 56 55
66 64 64 66 64 66 58 57 60 61 61 62 62 60 57 58 55 54 57 57 56 56 55 55 54 55 56 55 56 56 54 55 51 52 53 52 53 53 53 54 55 56 56

GFSMA_sfc_dewp_024.txt.gz
Dewpoint
70 70 72 69 70 69 69 70 69 69 70 69 69 69 68 68 68 66 65 73 73 74 73 73 73 73 73 72 72 73 72 71 70 70 71 72 71 70 70 70 71 71 70
70 76 70 69 69 69 70 71 71 70 70 69 69 69 69 68 68 69 66 69 72 74 75 74 74 73 73 73 72 71 73 73 72 71 72 72 72 71 70 71 71 71 71
72 76 69 69 68 71 74 74 71 70 68 67 67 67 67 67 64 65 64 64 68 73 73 74 75 74 74 73 73 73 73 73 74 74 73 73 73 73 73 72 72 72 72
76 76 78 68 68 71 70 70 71 64 62 61 62 62 62 62 60 62 61 62 59 60 71 74 73 73 72 72 73 73 74 74 74 75 74 74 74 74 74 74 74 74 73
72 72 70 69 73 70 70 68 65 66 61 59 56 55 59 60 60 59 64 65 64 63 61 73 73 72 72 72 73 74 74 74 74 74 75 75 74 74 74 74 73 74 74
72 72 69 71 72 71 70 67 69 64 61 60 58 56 60 62 63 64 63 62 65 66 65 69 67 68 72 71 73 73 73 73 74 74 74 74 74 74 74 74 74 74 74
73 73 69 70 72 70 69 71 65 61 58 62 60 58 59 62 63 63 63 61 62 64 66 67 67 66 69 71 72 72 72 73 74 74 74 74 74 74 74 74 74 74 74
74 72 73 71 72 67 72 70 66 58 60 64 59 57 54 58 59 61 63 60 60 61 62 64 68 70 71 73 71 70 70 71 72 72 73 73 73 73 73 74 74 74 74
74 74 72 71 72 70 63 66 65 65 57 61 65 59 54 52 54 59 62 58 60 56 57 60 62 62 63 63 65 67 66 67 68 70 70 70 71 72 73 73 74 74 74
72 73 74 73 74 66 66 64 64 64 65 58 62 64 64 63 55 54 56 57 57 55 58 54 55 58 58 56 61 63 63 62 63 64 65 66 68 70 71 72 73 73 74
73 71 74 73 72 63 67 68 67 67 62 61 61 61 64 60 63 55 51 53 55 55 55 56 55 55 56 57 56 61 60 60 61 61 62 63 64 66 68 70 71 72 73
69 73 72 72 70 65 68 66 67 66 66 65 62 62 58 56 56 55 54 55 56 55 54 54 55 56 55 56 55 57 58 59 60 61 61 62 62 63 64 67 69 71 71
63 70 72 70 68 70 69 67 67 66 66 64 66 59 60 58 59 56 55 52 52 53 52 53 54 54 55 55 56 59 61 60 60 60 60 61 61 62 63 63 65 68 70
63 69 69 69 69 69 68 68 64 64 65 64 65 65 60 58 58 57 56 54 51 49 50 56 55 53 53 55 59 61 60 61 61 61 62 61 61 61 62 62 62 63 67
63 67 69 69 69 69 68 68 64 65 65 65 64 65 63 59 58 58 57 56 54 51 50 52 52 57 56 56 59 59 61 63 62 62 62 61 61 61 62 61 62 62 63
68 68 68 68 68 68 67 69 65 65 66 62 61 64 65 60 59 59 58 58 57 56 53 52 51 56 59 59 61 62 62 64 63 62 62 61 61 61 61 62 62 63 63
70 70 69 68 68 67 67 68 67 64 65 66 65 65 65 67 61 58 58 59 58 56 54 53 54 58 61 63 62 62 61 61 59 63 62 62 61 61 61 61 61 61 62
69 69 69 69 68 67 68 67 65 63 64 64 64 65 64 61 65 66 59 63 60 61 56 61 61 57 62 62 62 63 60 58 58 59 62 61 61 60 60 60 60 60 60
67 67 69 68 67 67 68 67 66 65 64 64 64 64 63 63 64 61 62 59 57 60 59 58 58 57 57 57 60 61 61 62 56 59 60 59 60 59 59 58 58 58 57
67 67 66 68 68 68 67 65 66 66 65 64 65 65 64 63 63 63 62 63 62 60 61 56 55 57 56 59 61 57 55 52 52 52 56 57 58 58 59 58 58 58 57
66 66 67 67 67 66 62 66 65 65 65 65 65 64 64 64 65 64 60 62 64 59 55 53 52 54 54 59 60 55 53 52 56 55 51 50 51 51 53 57 58 59 58
69 68 67 66 66 62 60 62 65 64 65 65 65 65 65 65 64 62 62 62 62 61 60 57 54 58 61 58 55 54 53 52 51 53 54 51 53 52 52 52 55 57 56
65 67 67 67 65 65 60 61 63 64 64 66 67 68 66 65 64 63 62 61 61 60 60 61 59 58 58 58 59 60 57 55 53 53 57 53 54 52 52 52 56 57 56
67 67 67 67 67 65 60 59 62 65 67 67 65 64 65 64 67 63 61 60 60 60 61 59 60 59 59 59 58 56 57 56 56 55 58 55 55 51 52 54 55 56 55
66 67 67 67 68 67 59 59 61 65 66 64 64 64 64 64 61 58 60 59 59 59 57 57 56 55 55 56 56 54 53 53 53 52 53 52 49 51 54 54 55 56 55
66 65 66 68 64 67 57 57 61 65 64 64 63 63 60 59 58 55 58 58 57 57 57 57 56 56 57 57 58 58 55 56 55 50 51 50 51 53 52 53 54 56 56

GFSMA_sfc_dewp_030.txt.gz
Dewpoint
72 73 74 74 75 73 73 73 72 74 71 72 71 71 70 71 69 72 72 71 75 76 75 74 74 74 73 72 73 73 72 70 70 72 72 72 72 72 72 71 71 71 71
73 73 76 75 73 73 73 75 75 74 75 73 72 72 71 72 70 69 72 73 75 75 76 75 75 75 74 73 72 74 73 72 72 71 72 72 73 73 72 72 72 72 72
77 78 75 75 73 73 76 73 74 72 73 72 70 72 70 71 68 66 65 65 72 75 76 75 75 75 74 74 73 73 74 74 74 73 72 73 73 74 73 73 72 73 73
77 78 76 74 76 77 74 74 74 72 70 67 65 67 66 64 64 64 64 66 66 66 74 74 76 75 74 72 73 73 74 74 74 74 73 74 74 74 74 73 73 73 73
77 76 75 74 75 73 74 73 73 71 68 65 62 64 66 64 64 59 64 65 65 65 68 74 74 75 74 72 73 74 74 74 74 74 75 74 74 74 74 74 74 74 74
75 75 76 75 74 74 74 72 70 70 67 67 60 61 64 64 66 66 62 62 66 65 68 71 72 71 72 71 73 74 73 74 74 74 74 74 74 74 74 74 74 74 74
75 76 76 74 72 74 73 72 71 68 66 70 66 65 67 65 65 64 62 64 64 64 67 71 71 72 73 72 73 73 72 72 72 73 73 74 74 74 74 74 74 74 74
76 76 76 74 73 72 73 72 70 68 66 70 65 64 61 64 61 61 65 62 62 63 66 67 69 70 72 73 71 70 70 71 71 72 72 72 72 73 73 74 74 74 74
75 76 74 75 74 73 72 72 70 68 66 69 67 65 62 60 62 65 66 63 63 63 65 65 63 64 67 71 68 65 65 65 66 67 67 69 70 71 72 72 72 73 73
74 75 76 75 74 74 73 71 70 69 68 65 67 66 65 64 63 59 64 64 62 60 61 63 62 62 62 65 63 62 62 62 62 62 63 63 64 66 68 69 71 72 73
73 74 74 75 76 73 72 70 71 69 69 67 67 66 67 65 66 61 59 59 63 62 63 61 61 63 62 64 65 62 61 60 60 60 60 61 62 62 63 64 66 69 72
73 75 73 76 75 73 72 69 70 69 69 69 68 67 65 63 61 63 61 60 59 61 62 62 61 62 62 63 61 63 63 61 60 59 60 60 61 61 62 62 62 63 66
69 73 75 75 74 74 73 72 70 70 69 68 70 67 66 65 65 63 62 60 60 61 61 61 62 63 61 62 62 64 65 64 63 62 62 61 61 61 61 61 61 61 62
68 73 73 74 74 72 72 71 69 68 69 68 67 69 66 65 65 66 64 61 58 58 61 60 63 62 63 63 64 65 62 65 65 63 62 62 63 63 62 62 62 62 62
74 72 72 74 73 72 71 72 69 68 69 70 69 69 68 67 66 66 65 62 62 58 58 60 59 62 64 62 65 63 63 66 66 64 63 63 63 63 63 63 63 64 63
74 73 73 72 72 72 72 72 69 71 70 69 68 68 68 66 67 66 64 65 63 62 59 61 58 62 66 64 64 64 64 65 66 64 63 63 63 64 63 63 63 63 63
74 73 72 71 71 71 71 71 70 70 69 69 67 67 66 68 66 66 67 66 65 63 61 61 63 63 65 66 65 66 66 64 63 65 64 63 63 63 63 63 63 63 63
75 72 72 72 71 71 71 70 69 67 68 68 68 69 67 65 68 69 67 67 65 65 63 62 63 63 63 66 67 66 65 60 63 62 62 63 63 62 62 62 61 61 61
75 72 72 71 71 70 70 70 69 68 68 66 68 68 67 67 67 66 67 66 65 65 65 62 63 63 62 63 63 64 64 65 63 62 61 60 61 61 61 60 59 59 58
75 73 72 71 71 70 70 69 69 69 68 67 67 67 67 67 67 67 66 65 65 65 64 63 62 61 62 63 62 61 60 62 60 58 60 59 60 61 61 59 59 59 57
75 74 72 71 70 68 68 69 69 68 68 67 67 67 67 67 67 66 66 67 65 64 62 61 57 57 57 58 57 58 58 59 60 62 58 56 57 57 56 60 61 61 59
75 73 71 70 69 65 63 64 68 67 67 67 66 68 68 67 65 64 64 64 64 63 62 61 60 58 58 60 60 59 59 56 54 59 59 54 57 54 54 55 58 58 58
74 72 71 69 68 68 61 62 65 67 67 66 67 68 67 65 67 66 63 63 63 63 63 63 60 59 60 61 62 60 59 58 57 56 55 53 55 55 56 55 58 58 56
73 71 70 69 68 69 60 61 63 65 66 68 67 68 68 68 67 66 65 64 64 65 64 63 62 62 62 61 62 59 58 57 56 56 58 54 54 55 56 57 57 57 57
71 70 69 69 69 69 60 59 61 65 65 66 67 68 68 68 65 61 64 63 63 62 61 61 61 60 59 57 57 57 54 53 52 53 57 55 54 54 53 52 53 56 55
71 69 68 69 66 69 59 57 60 66 64 66 68 68 63 65 60 58 62 62 61 61 62 62 62 60 59 58 58 57 55 53 54 54 55 55 48 47 44 48 53 56 56

GFSMA_sfc_dewp_033.txt.gz
Dewpoint
71 72 71 72 70 72 72 70 71 71 71 70 69 69 68 70 70 71 71 74 75 74 75 75 74 73 73 73 72 72 70 71 72 72 72 72 70 71 72 71 71 71 71
71 71 72 72 71 70 72 72 71 70 71 70 70 69 68 69 70 71 71 72 74 74 74 74 75 75 73 73 73 74 73 71 71 71 72 73 73 73 72 71 71 70 72
72 71 70 71 72 72 72 71 71 71 70 69 65 69 69 67 67 70 71 71 72 75 74 75 75 75 75 74 73 74 74 75 74 72 73 73 73 73 72 73 72 73 73
73 72 71 71 73 72 70 71 70 68 66 62 59 60 63 60 60 59 60 61 69 70 74 74 74 74 75 74 73 74 74 75 75 74 74 73 73 74 74 74 74 73 73
74 73 72 72 72 71 72 71 69 67 60 59 60 60 60 60 61 60 61 61 63 69 70 73 72 73 72 72 72 73 73 74 74 75 74 74 74 74 74 74 74 74 74
74 72 73 72 71 72 70 68 67 66 63 62 61 60 61 61 59 63 62 62 64 66 68 71 70 70 73 73 74 74 73 74 74 74 74 74 74 74 74 74 74 74 74
72 73 72 72 72 71 68 69 64 60 61 64 60 59 63 60 58 63 62 60 60 65 68 69 70 71 72 72 73 72 72 72 73 74 74 74 74 74 74 74 74 74 74
72 72 72 71 70 69 69 65 62 63 61 64 58 59 57 60 60 61 59 57 59 65 65 65 65 69 70 70 69 71 71 71 71 71 72 72 73 73 73 73 73 74 74
73 73 73 71 71 70 69 65 64 62 60 62 60 59 58 57 60 63 59 58 59 60 62 60 60 63 70 68 66 64 66 66 67 67 67 68 69 70 71 72 72 72 73
73 73 72 70 70 70 67 64 64 63 61 57 63 62 61 59 58 55 60 59 58 56 60 58 58 59 65 64 63 63 63 62 62 61 62 63 63 64 65 68 70 71 72
72 72 72 72 70 70 67 64 62 63 63 63 63 63 61 61 60 56 55 57 60 59 57 58 59 58 62 62 58 62 63 63 62 60 60 60 61 62 62 63 64 66 69
70 72 71 71 70 67 64 65 65 63 63 63 62 62 61 59 58 59 56 54 56 57 59 58 58 59 59 64 61 63 65 64 63 62 61 60 60 60 60 61 62 62 63
68 71 70 71 69 69 67 66 64 63 63 63 65 62 63 61 60 57 55 55 55 56 57 59 58 59 58 61 61 64 66 64 64 62 62 62 61 61 60 60 60 61 61
67 69 72 71 70 69 67 67 66 66 65 64 62 62 62 61 62 61 57 55 52 54 55 58 60 58 58 59 62 66 62 65 65 64 63 63 64 64 63 62 62 62 62
68 69 72 71 70 69 69 68 66 65 65 65 63 64 61 63 62 63 60 58 55 53 54 56 55 59 61 59 61 62 58 65 65 65 64 63 63 64 65 65 64 64 64
70 69 72 71 70 69 69 68 66 67 66 66 64 64 63 63 63 62 62 61 59 56 53 58 56 58 61 60 65 60 61 65 66 65 64 63 63 63 64 65 64 64 64
71 70 71 71 70 70 69 68 66 66 67 65 65 64 65 63 62 61 63 61 60 60 57 56 59 60 62 61 62 62 63 62 61 65 64 63 63 63 63 64 64 63 63
71 70 70 71 70 70 68 68 67 66 65 65 64 64 63 63 62 62 62 61 61 61 60 57 59 60 59 59 61 62 63 63 61 63 64 64 63 63 62 62 62 62 62
72 70 70 69 70 69 69 68 67 65 66 65 65 65 64 64 63 64 64 62 62 62 61 59 59 60 60 60 59 61 61 62 62 63 61 61 61 61 60 61 60 60 59
72 70 70 69 69 69 68 69 67 67 66 65 66 65 65 64 63 63 62 62 63 61 61 60 59 59 59 58 59 57 56 58 59 59 61 61 60 60 61 60 60 60 58
73 70 69 70 70 69 68 68 67 67 66 65 65 65 65 66 66 65 63 62 62 61 59 58 57 56 56 56 56 56 57 57 57 58 57 56 55 54 55 56 60 62 60
74 72 70 70 69 69 65 66 67 67 67 66 65 65 64 67 67 66 64 64 62 60 58 58 57 57 57 58 59 58 57 56 54 57 56 54 54 52 52 54 58 58 58
74 73 71 70 69 68 63 64 66 67 66 66 65 64 65 65 64 63 63 63 63 62 61 59 57 57 57 59 59 58 58 58 57 55 54 51 53 53 54 54 58 58 57
74 72 70 69 69 68 63 61 63 65 66 65 66 66 65 65 65 63 62 61 61 62 61 62 61 60 60 60 60 59 58 55 55 55 55 53 54 53 54 55 58 58 57
73 71 70 69 68 67 61 59 61 65 65 64 66 67 67 65 63 63 62 61 60 61 62 61 61 61 61 61 61 56 53 51 51 51 53 54 52 52 50 45 46 55 54
71 70 69 68 65 66 60 58 60 65 64 64 64 66 62 64 61 60 61 60 59 59 60 60 60 58 58 57 58 56 54 52 52 51 53 53 51 44 41 43 46 51 52